SWR1DE LFPG-LSZH

Flight info

Callsign SWR1DE
Flight time 0h 44m
Altitude 33000
Route BUBLI DCT LUVAL DCT OKIPO DCT PEVIT DCT BLM
Aircraft A20N/M-SDE2E3FGHIRWXY/LB1

Departure

Time 2026-05-04 14:02
Airport Charles de Gaulle International Airport (LFPG)

Arrival

Time 2026-05-04 14:46
Airport Zürich Airport (LSZH)
Time Latitude Longitude Altitude Speed Heading
2026-05-04 13:31 49.00197 2.56665 400 ft 0 kts 12°
2026-05-04 13:54 49.00187 2.56662 400 ft 2 kts 17°
2026-05-04 13:54 49.00160 2.56643 400 ft 2 kts 33°
2026-05-04 13:55 49.00148 2.56630 400 ft 2 kts 40°
2026-05-04 13:55 49.00127 2.56596 400 ft 2 kts 56°
2026-05-04 13:55 49.00119 2.56577 400 ft 2 kts 63°
2026-05-04 13:56 49.00113 2.56556 400 ft 2 kts 71°
2026-05-04 13:56 49.00109 2.56534 400 ft 2 kts 78°
2026-05-04 13:56 49.00106 2.56489 400 ft 2 kts 86°
2026-05-04 13:57 49.00105 2.56466 400 ft 2 kts 86°
2026-05-04 13:57 49.00104 2.56444 400 ft 1 kts 86°
2026-05-04 13:58 49.00104 2.56441 400 ft 0 kts 86°
2026-05-04 13:59 49.00104 2.56442 400 ft 0 kts 86°
2026-05-04 13:59 49.00106 2.56476 400 ft 5 kts 86°
2026-05-04 13:59 49.00021 2.56574 400 ft 10 kts 173°
2026-05-04 14:00 48.99942 2.56587 400 ft 11 kts 175°
2026-05-04 14:00 48.99768 2.56608 400 ft 11 kts 177°
2026-05-04 14:00 48.99693 2.56614 400 ft 10 kts 176°
2026-05-04 14:01 48.99646 2.56691 400 ft 11 kts 97°
2026-05-04 14:01 48.99656 2.56893 400 ft 43 kts 85°
2026-05-04 14:01 48.99782 2.59294 583 ft 160 kts 85°
2026-05-04 14:02 48.99874 2.60996 1250 ft 165 kts 84°
2026-05-04 14:02 49.00012 2.62744 1976 ft 171 kts 83°
2026-05-04 14:02 49.00177 2.64525 2674 ft 176 kts 85°
2026-05-04 14:02 49.00263 2.66455 3161 ft 191 kts 88°
2026-05-04 14:03 49.00333 2.68552 3634 ft 208 kts 87°
2026-05-04 14:03 49.00427 2.70867 4027 ft 232 kts 86°
2026-05-04 14:03 49.00544 2.73401 4569 ft 251 kts 85°
2026-05-04 14:03 49.00678 2.76110 5195 ft 265 kts 85°
2026-05-04 14:04 49.00651 2.81749 6973 ft 273 kts 96°
2026-05-04 14:04 49.00336 2.84604 7860 ft 276 kts 100°
2026-05-04 14:04 48.99962 2.87450 8724 ft 280 kts 100°
2026-05-04 14:05 48.99184 2.93288 10362 ft 287 kts 100°
2026-05-04 14:05 48.98775 2.96331 10880 ft 302 kts 102°
2026-05-04 14:05 48.98201 2.99439 11510 ft 312 kts 107°
2026-05-04 14:06 48.97403 3.02500 12286 ft 316 kts 113°
2026-05-04 14:06 48.96486 3.05531 13045 ft 320 kts 114°
2026-05-04 14:06 48.95538 3.08596 13782 ft 324 kts 114°
2026-05-04 14:06 48.94579 3.11695 14479 ft 328 kts 114°
2026-05-04 14:07 48.93604 3.14850 15170 ft 333 kts 114°
2026-05-04 14:07 48.92614 3.18060 15851 ft 337 kts 115°
2026-05-04 14:07 48.91618 3.21279 16542 ft 340 kts 116°
2026-05-04 14:07 48.90616 3.24514 17231 ft 343 kts 116°
2026-05-04 14:08 48.89592 3.27814 17898 ft 346 kts 116°
2026-05-04 14:08 48.88561 3.31132 18555 ft 349 kts 117°
2026-05-04 14:08 48.87525 3.34463 19191 ft 352 kts 117°
2026-05-04 14:08 48.86485 3.37800 19800 ft 356 kts 117°
2026-05-04 14:09 48.84358 3.44611 21030 ft 362 kts 117°
2026-05-04 14:09 48.83276 3.48073 21629 ft 365 kts 118°
2026-05-04 14:10 48.81369 3.55271 22812 ft 375 kts 107°
2026-05-04 14:10 48.80868 3.59199 23386 ft 382 kts 100°
2026-05-04 14:10 48.80585 3.63192 23947 ft 386 kts 98°
2026-05-04 14:10 48.80338 3.67239 24499 ft 389 kts 99°
2026-05-04 14:11 48.80088 3.71338 25039 ft 392 kts 99°
2026-05-04 14:11 48.79565 3.79574 26110 ft 397 kts 101°
2026-05-04 14:11 48.79294 3.83722 26611 ft 400 kts 101°
2026-05-04 14:12 48.79016 3.87913 27093 ft 403 kts 101°
2026-05-04 14:12 48.78733 3.92133 27583 ft 405 kts 102°
2026-05-04 14:12 48.78148 4.00754 28481 ft 410 kts 102°
2026-05-04 14:13 48.77856 4.05032 28914 ft 412 kts 102°
2026-05-04 14:13 48.77487 4.09378 29293 ft 411 kts 108°
2026-05-04 14:13 48.76776 4.13528 29697 ft 406 kts 115°
2026-05-04 14:13 48.75711 4.17443 30088 ft 401 kts 123°
2026-05-04 14:14 48.74327 4.21055 30537 ft 394 kts 130°
2026-05-04 14:14 48.71216 4.27729 31480 ft 389 kts 132°
2026-05-04 14:14 48.69636 4.31062 31767 ft 391 kts 132°
2026-05-04 14:15 48.66457 4.37783 32303 ft 396 kts 131°
2026-05-04 14:15 48.63254 4.44557 32827 ft 401 kts 131°
2026-05-04 14:16 48.59960 4.51514 33068 ft 411 kts 131°
2026-05-04 14:16 48.58289 4.55042 33276 ft 414 kts 131°
2026-05-04 14:17 48.54968 4.62049 33900 ft 413 kts 131°
2026-05-04 14:17 48.53276 4.65609 34219 ft 413 kts 132°
2026-05-04 14:17 48.49925 4.72643 34811 ft 412 kts 132°
2026-05-04 14:18 48.48247 4.76157 35028 ft 412 kts 132°
2026-05-04 14:18 48.44891 4.83165 35424 ft 412 kts 132°
2026-05-04 14:19 48.41540 4.90149 35771 ft 413 kts 132°
2026-05-04 14:19 48.39857 4.93649 35944 ft 414 kts 131°
2026-05-04 14:19 48.38170 4.97154 36100 ft 414 kts 132°
2026-05-04 14:19 48.36491 5.00641 36234 ft 415 kts 131°
2026-05-04 14:20 48.34786 5.04171 36352 ft 416 kts 131°
2026-05-04 14:20 48.33099 5.07665 36488 ft 417 kts 131°
2026-05-04 14:20 48.31397 5.11178 36641 ft 418 kts 131°
2026-05-04 14:21 48.27884 5.18166 36965 ft 418 kts 134°
2026-05-04 14:21 48.26065 5.21600 36973 ft 423 kts 134°
2026-05-04 14:21 48.22393 5.28515 36975 ft 432 kts 134°
2026-05-04 14:22 48.18606 5.35635 36981 ft 439 kts 134°
2026-05-04 14:22 48.14793 5.42785 36980 ft 445 kts 134°
2026-05-04 14:23 48.08981 5.53648 36995 ft 447 kts 134°
2026-05-04 14:24 48.05078 5.60916 36978 ft 447 kts 133°
2026-05-04 14:24 48.01168 5.68180 36985 ft 446 kts 134°
2026-05-04 14:25 47.97282 5.75373 36985 ft 447 kts 134°
2026-05-04 14:25 47.93618 5.82944 36826 ft 453 kts 127°
2026-05-04 14:25 47.92096 5.87042 36675 ft 456 kts 122°
2026-05-04 14:26 47.90789 5.91363 36547 ft 459 kts 117°
2026-05-04 14:26 47.89719 5.95870 36469 ft 462 kts 112°
2026-05-04 14:26 47.88160 6.05172 36209 ft 459 kts 108°
2026-05-04 14:27 47.87454 6.09785 35751 ft 458 kts 108°
2026-05-04 14:27 47.86747 6.14393 35087 ft 460 kts 109°
2026-05-04 14:27 47.86027 6.19019 34269 ft 461 kts 109°
2026-05-04 14:27 47.85302 6.23635 33405 ft 462 kts 109°
2026-05-04 14:28 47.84566 6.28290 32466 ft 465 kts 109°
2026-05-04 14:28 47.83820 6.32978 31498 ft 467 kts 108°
2026-05-04 14:28 47.83071 6.37692 30876 ft 469 kts 108°
2026-05-04 14:28 47.82331 6.42342 30365 ft 471 kts 107°
2026-05-04 14:29 47.80816 6.51831 29339 ft 475 kts 107°
2026-05-04 14:29 47.79275 6.61433 28306 ft 478 kts 107°
2026-05-04 14:30 47.78500 6.66238 27792 ft 479 kts 108°
2026-05-04 14:30 47.77725 6.71024 27307 ft 480 kts 108°
2026-05-04 14:30 47.76152 6.80687 26441 ft 483 kts 108°
2026-05-04 14:31 47.75361 6.85530 25919 ft 485 kts 108°
2026-05-04 14:31 47.73769 6.95228 24700 ft 487 kts 107°
2026-05-04 14:32 47.72154 7.04992 23676 ft 489 kts 107°
2026-05-04 14:32 47.71347 7.09854 23173 ft 481 kts 107°
2026-05-04 14:32 47.70555 7.14622 22573 ft 471 kts 107°
2026-05-04 14:32 47.69767 7.19266 22008 ft 461 kts 108°
2026-05-04 14:33 47.68860 7.23767 21497 ft 453 kts 109°
2026-05-04 14:33 47.67937 7.28139 20974 ft 449 kts 110°
2026-05-04 14:33 47.66999 7.32530 20450 ft 445 kts 110°
2026-05-04 14:33 47.66066 7.36895 19934 ft 442 kts 110°
2026-05-04 14:34 47.65149 7.41195 19462 ft 434 kts 110°
2026-05-04 14:34 47.64333 7.45451 18959 ft 424 kts 102°
2026-05-04 14:34 47.64225 7.49714 17952 ft 418 kts 88°
2026-05-04 14:34 47.64535 7.53974 16417 ft 420 kts 84°
2026-05-04 14:35 47.64908 7.58218 14724 ft 422 kts 84°
2026-05-04 14:35 47.65248 7.62449 13194 ft 416 kts 85°
2026-05-04 14:35 47.65547 7.66610 11836 ft 405 kts 86°
2026-05-04 14:35 47.65814 7.70718 10592 ft 391 kts 87°
2026-05-04 14:36 47.66048 7.74574 9977 ft 363 kts 88°
2026-05-04 14:36 47.66254 7.78090 9815 ft 328 kts 88°
2026-05-04 14:36 47.66438 7.81376 9681 ft 310 kts 88°
2026-05-04 14:36 47.66606 7.84446 9542 ft 286 kts 88°
2026-05-04 14:37 47.66762 7.87363 9465 ft 284 kts 88°
2026-05-04 14:37 47.66913 7.90247 9296 ft 282 kts 88°
2026-05-04 14:37 47.67066 7.93147 9111 ft 281 kts 88°
2026-05-04 14:37 47.67216 7.95996 8859 ft 279 kts 88°
2026-05-04 14:38 47.67368 7.98891 8548 ft 278 kts 87°
2026-05-04 14:38 47.67517 8.01716 8237 ft 277 kts 87°
2026-05-04 14:38 47.67666 8.04556 7910 ft 276 kts 87°
2026-05-04 14:38 47.67814 8.07387 7571 ft 274 kts 87°
2026-05-04 14:39 47.67961 8.10210 7244 ft 273 kts 86°
2026-05-04 14:39 47.68105 8.12983 6926 ft 271 kts 86°
2026-05-04 14:39 47.68248 8.15767 6602 ft 270 kts 86°
2026-05-04 14:40 47.68528 8.21258 6039 ft 262 kts 86°
2026-05-04 14:40 47.68590 8.23879 6017 ft 245 kts 99°
2026-05-04 14:40 47.68007 8.26126 5936 ft 233 kts 123°
2026-05-04 14:40 47.66970 8.27962 5675 ft 230 kts 134°
2026-05-04 14:41 47.65835 8.29619 5382 ft 229 kts 136°
2026-05-04 14:41 47.64665 8.31238 5086 ft 229 kts 136°
2026-05-04 14:41 47.62326 8.34407 4544 ft 227 kts 136°
2026-05-04 14:42 47.60096 8.37426 4353 ft 206 kts 136°
2026-05-04 14:42 47.59059 8.38834 4202 ft 198 kts 137°
2026-05-04 14:42 47.58053 8.40202 4021 ft 197 kts 137°
2026-05-04 14:43 47.57057 8.41558 3739 ft 196 kts 137°
2026-05-04 14:43 47.56051 8.42927 3462 ft 196 kts 137°
2026-05-04 14:43 47.55042 8.44301 3194 ft 196 kts 137°
2026-05-04 14:43 47.54040 8.45664 2935 ft 196 kts 137°
2026-05-04 14:44 47.53049 8.47013 2700 ft 193 kts 137°
2026-05-04 14:44 47.52094 8.48314 2461 ft 180 kts 136°
2026-05-04 14:44 47.51206 8.49523 2218 ft 166 kts 136°
2026-05-04 14:44 47.50393 8.50637 1967 ft 155 kts 135°
2026-05-04 14:45 47.49635 8.51693 1790 ft 146 kts 135°
2026-05-04 14:45 47.48885 8.52709 1637 ft 146 kts 136°
2026-05-04 14:45 47.48139 8.53711 1494 ft 145 kts 136°
2026-05-04 14:45 47.47416 8.54694 1426 ft 132 kts 136°
2026-05-04 14:46 47.46867 8.55439 1425 ft 81 kts 137°
2026-05-04 14:46 47.46540 8.55882 1426 ft 56 kts 136°
2026-05-04 14:46 47.46308 8.56199 1426 ft 36 kts 136°
2026-05-04 14:46 47.46101 8.56338 1426 ft 31 kts 186°
2026-05-04 14:47 47.45987 8.56319 1426 ft 14 kts 185°
2026-05-04 14:47 47.45887 8.56305 1426 ft 14 kts 185°
2026-05-04 14:47 47.45783 8.56290 1426 ft 15 kts 185°
2026-05-04 14:47 47.45678 8.56274 1426 ft 15 kts 186°
2026-05-04 14:48 47.45570 8.56257 1426 ft 15 kts 185°
2026-05-04 14:48 47.45486 8.56212 1426 ft 12 kts 251°
2026-05-04 14:48 47.45484 8.56086 1426 ft 12 kts 276°
2026-05-04 14:48 47.45486 8.56020 1426 ft 3 kts 243°
2026-05-04 14:49 47.45456 8.56009 1426 ft 5 kts 186°
2026-05-04 14:49 47.45417 8.56002 1426 ft 3 kts 186°
2026-05-04 14:49 47.45411 8.56002 1426 ft 0 kts 186°